Location: Copper Breaks State Park
(34.1132°N, 99.7492°W)
Time: 08:33:32
(UTC-05:00)

Amateur Radio Satellites - All Passes

Search period start: 16 August 2017 08:03
Search period end: 17 August 2017 08:03
Location: Copper Breaks State Park, 34.1132°N, 99.7492°W

Satellite Date Start Highest point End Downlink Frequencies (MHz)
Time Altitude Azimuth
STRAND 1 16 Aug 08:10:38 08:15:43 67° 75° (ENE) 08:20:47 437.568
DOVE 4 16 Aug 08:17:20 08:19:59 15° 294° (WNW) 08:22:34 437.250
KAITUO 1B 16 Aug 08:17:48 08:21:25 44° 285° (WNW) 08:25:02 145.475/437.950
LilacSat-2 16 Aug 08:19:57 08:23:19 29° 287° (WNW) 08:26:42 437.200
XW-2A 16 Aug 08:20:24 08:21:59 13° 94° (E) 08:23:34 145.665 - 145.685
CUBEBUG 2 16 Aug 08:25:40 08:28:32 18° 95° (E) 08:31:27 437.445
HO-68 16 Aug 08:29:55 08:36:47 48° 100° (E) 08:43:37 435.675
UWE-3 16 Aug 08:31:20 08:32:37 11° 93° (E) 08:33:55 435.000/436.395/437.385
XW-2D 16 Aug 08:31:23 08:34:23 22° 289° (WNW) 08:37:23 145.860 - 145.880
SEEDS 16 Aug 08:33:03 08:36:43 28° 97° (E) 08:40:21 437.485
AO-85 16 Aug 08:38:01 08:40:38 17° 308° (NW) 08:43:16 145.980
XW-2B 16 Aug 08:42:40 08:45:12 17° 290° (WNW) 08:47:44 145.730 - 145.750
BEESAT 2 16 Aug 08:49:36 08:52:56 25° 306° (NW) 08:56:18 435.950
FO-29 16 Aug 08:58:09 09:03:43 22° 65° (ENE) 09:09:01 435.910
NUDT-PHONESAT 16 Aug 09:00:17 09:02:13 14° 291° (WNW) 09:04:09 437.300
CUTE 1.7 + AOD 2 16 Aug 09:09:50 09:14:04 59° 284° (WNW) 09:18:17 437.475
ZACube-1 16 Aug 09:21:24 09:24:55 25° 96° (E) 09:28:28 437.345
AAUSAT CUBESAT 2 16 Aug 09:34:31 09:38:41 69° 101° (E) 09:42:50 437.432
PCSat 16 Aug 09:38:40 09:43:34 33° 57° (ENE) 09:48:25 145.827
CUTE-I 16 Aug 09:40:43 09:42:12 11° 298° (WNW) 09:43:42 437.470
AO-73 16 Aug 09:45:29 09:49:32 43° 99° (E) 09:53:40 145.935
XW-2A 16 Aug 09:51:53 09:54:42 25° 287° (WNW) 09:57:30 145.665 - 145.685
STRAND 1 16 Aug 09:53:43 09:55:15 11° 268° (W) 09:56:47 437.568
SO-50 16 Aug 10:00:27 10:04:36 33° 55° (NE) 10:08:47 436.795
CUBEBUG 2 16 Aug 10:01:32 10:05:08 29° 288° (WNW) 10:08:48 437.445
UWE-3 16 Aug 10:05:12 10:09:15 47° 285° (WNW) 10:13:22 435.000/436.395/437.385
SEEDS 16 Aug 10:09:05 10:12:11 20° 290° (WNW) 10:15:15 437.485
HO-68 16 Aug 10:18:15 10:24:08 29° 296° (WNW) 10:30:02 435.675
UNISAT 6 16 Aug 10:20:05 10:24:05 34° 73° (ENE) 10:28:00 437.425
PRISM 16 Aug 10:28:04 10:31:40 29° 71° (ENE) 10:35:16 437.425
O/OREOS (USA 219) 16 Aug 10:34:20 10:37:44 22° 101° (ESE) 10:41:08 437.305
Oscar 11 16 Aug 10:36:55 10:41:13 61° 284° (WNW) 10:45:30 .
FO-29 16 Aug 10:40:20 10:48:08 69° 258° (WSW) 10:55:28 435.910
Max Valier Satellite 16 Aug 10:48:54 10:52:02 26° 97° (E) 10:55:10 145.860
RS-15 16 Aug 10:54:32 11:02:03 19° 99° (E) 11:09:36 29.354- 29.394
TIGRISAT 16 Aug 10:56:16 11:00:42 87° 76° (ENE) 11:05:02 435.000
ZACube-1 16 Aug 10:57:45 11:01:03 22° 289° (WNW) 11:04:23 437.345
NO-84 16 Aug 11:09:48 11:12:47 32° 44° (NE) 11:16:00 435.350 FM
ISS 16 Aug 11:14:58 11:15:51 11° 126° (SE) 11:16:43 437.550
PCSat 16 Aug 11:22:15 11:26:47 28° 253° (WSW) 11:31:18 145.827
AO-73 16 Aug 11:23:19 11:25:23 13° 292° (WNW) 11:27:28 145.935
nSIGHT-1 16 Aug 11:28:38 11:30:50 17° 128° (SE) 11:33:03 .
DELFI C3 16 Aug 11:28:54 11:32:51 62° 284° (WNW) 11:36:45 145.870
Tancredo 1 16 Aug 11:32:03 11:34:59 87° 327° (NNW) 11:37:54 437.200
SO-50 16 Aug 11:41:23 11:44:50 21° 250° (WSW) 11:48:19 436.795
EO-88 16 Aug 11:54:23 11:57:54 46° 284° (WNW) 12:01:24 145.990 - 145.960
M-CUBED/EXP-1 PRIME 16 Aug 11:54:59 11:59:14 69° 71° (ENE) 12:03:46 437.505
AIST 2D 16 Aug 11:55:33 11:58:49 42° 75° (ENE) 12:02:08 435.315
UNISAT 6 16 Aug 11:58:01 12:00:49 16° 265° (W) 12:03:36 437.425
POLYITAN 1 16 Aug 12:00:38 12:03:49 21° 70° (ENE) 12:07:00 437.675
NANOSAT C BR1 16 Aug 12:01:15 12:04:15 19° 69° (ENE) 12:07:15 145.865
PRISM 16 Aug 12:04:06 12:06:55 18° 265° (W) 12:09:45 437.425
LO-87 16 Aug 12:08:38 12:11:30 23° 97° (E) 12:14:20 145.935 - 145.965
O/OREOS (USA 219) 16 Aug 12:13:07 12:16:55 27° 296° (WNW) 12:20:46 437.305
QB50P2 16 Aug 12:14:40 12:18:30 34° 73° (ENE) 12:22:20 145.880/145.840
EO-79 16 Aug 12:17:20 12:21:08 33° 72° (ENE) 12:24:56 145.935-145.965
Max Valier Satellite 16 Aug 12:23:24 12:25:37 15° 290° (WNW) 12:27:50 145.860
ESTCUBE 1 16 Aug 12:25:30 12:29:19 26° 96° (E) 12:33:07 437.505/2401.250
NO-84 16 Aug 12:47:44 12:50:02 17° 235° (SW) 12:52:28 435.350 FM
ISS 16 Aug 12:48:45 12:51:57 52° 319° (NW) 12:55:10 437.550
DUCHIFAT 1 16 Aug 12:53:23 12:57:34 75° 76° (ENE) 13:01:44 145.980
JUGNU 16 Aug 12:59:23 13:02:06 13° 167° (SSE) 13:04:48 437.505
RS-15 16 Aug 13:00:35 13:12:45 87° 116° (ESE) 13:25:11 29.354- 29.394
nSIGHT-1 16 Aug 13:04:01 13:07:01 34° 322° (NW) 13:10:02 .
BUGSAT 1 16 Aug 13:15:04 13:18:45 32° 72° (ENE) 13:22:24 437.445
Oscar 19 16 Aug 13:17:23 13:20:40 17° 66° (ENE) 13:23:57 437.125/150
POLYITAN 1 16 Aug 13:35:57 13:39:26 25° 263° (W) 13:42:55 437.675
NANOSAT C BR1 16 Aug 13:36:08 13:39:44 28° 263° (W) 13:43:21 145.865
SPROUT 16 Aug 13:42:30 13:46:35 46° 99° (E) 13:50:39 437.525
LO-87 16 Aug 13:42:33 13:44:42 15° 290° (WNW) 13:46:50 145.935 - 145.965
Gurwin Techsat 1B 16 Aug 13:48:16 13:52:22 23° 67° (ENE) 13:56:29 435.225
50 SAT 16 Aug 13:49:31 13:50:48 12° 94° (E) 13:52:05 437.505
QB50P2 16 Aug 13:51:52 13:54:21 15° 266° (W) 13:56:49 145.880/145.840
EO-79 16 Aug 13:54:22 13:56:56 16° 266° (W) 13:59:30 145.935-145.965
ESTCUBE 1 16 Aug 14:02:20 14:05:58 24° 290° (WNW) 14:09:35 437.505/2401.250
AO-7 16 Aug 14:15:13 14:18:20 13° 51° (NE) 14:21:26 .
VELOX 1 16 Aug 14:31:06 14:35:27 58° 285° (WNW) 14:39:45 145.980
UKube-1 16 Aug 14:39:02 14:42:41 26° 97° (E) 14:46:18 .
JUGNU 16 Aug 14:46:21 14:50:24 19° 177° (S) 14:54:26 437.505
DX 1 16 Aug 14:49:25 14:53:43 58° 101° (ESE) 14:57:58 434.975-435.025
BUGSAT 1 16 Aug 14:51:36 14:54:07 16° 265° (W) 14:56:39 437.445
Oscar 19 16 Aug 14:54:36 14:59:32 48° 260° (W) 15:04:31 437.125/150
RS-15 16 Aug 15:16:48 15:26:55 29° 320° (NW) 15:37:08 29.354- 29.394
SPROUT 16 Aug 15:20:18 15:22:01 12° 293° (WNW) 15:23:45 437.525
50 SAT 16 Aug 15:20:37 15:23:30 26° 288° (WNW) 15:26:22 437.505
Gurwin Techsat 1B 16 Aug 15:27:10 15:32:02 37° 262° (W) 15:36:57 435.225
BEESAT 3 16 Aug 15:31:38 15:33:56 15° 50° (NE) 15:36:12 437.485
AO-85 16 Aug 15:31:49 15:33:43 12° 49° (NE) 15:35:40 145.980
AO-7 16 Aug 16:01:16 16:09:32 68° 69° (ENE) 16:17:50 .
ITAMSAT 1 16 Aug 16:02:55 16:07:56 49° 72° (ENE) 16:12:56 435.822/435.867
UKube-1 16 Aug 16:15:14 16:18:31 21° 291° (WNW) 16:21:47 .
YUBILEINY 16 Aug 16:23:00 16:30:16 30° 85° (E) 16:37:31 435.215
BEESAT 16 Aug 16:23:12 16:27:40 39° 99° (E) 16:32:06 436.000
DX 1 16 Aug 16:28:22 16:29:20 11° 295° (WNW) 16:30:18 434.975-435.025
JUGNU 16 Aug 16:34:54 16:38:43 18° 187° (S) 16:42:32 437.505
SRMSAT 16 Aug 16:36:29 16:40:08 17° 171° (S) 16:43:48 437.500
MOZHAYETS 4 16 Aug 16:51:22 16:55:59 70° 102° (ESE) 17:00:35
ITUPSAT 1 16 Aug 16:53:51 16:58:38 86° 100° (E) 17:03:25 437.325
CUBESAT XI-V 16 Aug 16:59:22 17:02:03 15° 93° (E) 17:04:43 437.345
BEESAT 3 16 Aug 17:07:57 17:11:41 40° 246° (WSW) 17:15:21 437.485
BEESAT 2 16 Aug 17:09:47 17:13:47 55° 60° (ENE) 17:17:42 435.950
AO-85 16 Aug 17:10:03 17:14:25 66° 244° (WSW) 17:19:07 145.980
DOVE 4 16 Aug 17:39:02 17:43:39 32° 71° (ENE) 17:48:16 437.250
KKS-1 16 Aug 17:40:07 17:43:04 17° 95° (E) 17:45:57 437.445
RS-15 16 Aug 17:41:11 17:45:47 12° 355° (N) 17:50:20 29.354- 29.394
ITAMSAT 1 16 Aug 17:44:23 17:47:35 16° 266° (W) 17:50:48 435.822/435.867
AO-7 16 Aug 17:56:37 18:02:45 22° 265° (W) 18:08:55 .
Tancredo 1 16 Aug 17:58:34 18:00:26 15° 32° (NNE) 18:02:17 437.200
BEESAT 16 Aug 18:01:54 18:05:06 18° 293° (WNW) 18:08:17 436.000
XW-2C 16 Aug 18:05:36 18:07:25 13° 69° (ENE) 18:09:16 145.795 - 145.815
YUBILEINY 16 Aug 18:18:06 18:26:34 51° 281° (WNW) 18:35:03 435.215
XW-2F 16 Aug 18:20:55 18:23:39 20° 71° (ENE) 18:26:23 145.980 - 146.000
SRMSAT 16 Aug 18:24:26 18:28:38 20° 181° (S) 18:32:50 437.500
JUGNU 16 Aug 18:25:54 18:26:59 10° 196° (SSW) 18:28:03 437.505
STARS 16 Aug 18:32:06 18:35:47 26° 97° (E) 18:39:26 437.465
CUBESAT XI-V 16 Aug 18:35:06 18:39:34 44° 287° (WNW) 18:44:02 437.345
KAITUO 1B 16 Aug 18:53:44 18:57:12 41° 75° (ENE) 19:00:43 145.475/437.950
HO-68 16 Aug 18:55:38 19:01:08 25° 63° (ENE) 19:06:38 435.675
LilacSat-2 16 Aug 18:57:19 19:01:03 73° 77° (ENE) 19:04:49 437.200
XW-2D 16 Aug 19:07:47 19:11:31 82° 257° (WSW) 19:15:17 145.860 - 145.880
CUTE-I 16 Aug 19:15:28 19:20:51 89° 66° (ENE) 19:26:14 437.470
KKS-1 16 Aug 19:15:39 19:19:39 34° 288° (WNW) 19:23:38 437.445
DOVE 4 16 Aug 19:16:47 19:21:13 27° 264° (W) 19:25:40 437.250
XW-2B 16 Aug 19:18:45 19:22:25 59° 259° (W) 19:26:08 145.730 - 145.750
ISS 16 Aug 19:19:41 19:22:34 28° 37° (NE) 19:25:26 437.550
SEEDS 16 Aug 19:22:43 19:24:28 12° 67° (ENE) 19:26:12 437.485
CUBEBUG 2 16 Aug 19:22:48 19:23:14 10° 66° (ENE) 19:23:40 437.445
Tancredo 1 16 Aug 19:33:05 19:35:46 35° 228° (SW) 19:38:27 437.200
NUDT-PHONESAT 16 Aug 19:33:55 19:37:27 50° 260° (W) 19:41:02 437.300
nSIGHT-1 16 Aug 19:34:11 19:37:17 41° 40° (NE) 19:40:21 .
XW-2C 16 Aug 19:37:57 19:41:17 31° 262° (W) 19:44:39 145.795 - 145.815
XW-2F 16 Aug 19:54:49 19:57:37 20° 264° (W) 20:00:28 145.980 - 146.000
RS-15 16 Aug 19:56:38 20:05:25 22° 33° (NNE) 20:13:52 29.354- 29.394
CUTE 1.7 + AOD 2 16 Aug 19:58:16 20:02:24 57° 75° (ENE) 20:06:33 437.475
STARS 16 Aug 20:08:37 20:11:56 22° 291° (WNW) 20:15:16 437.465
SRMSAT 16 Aug 20:13:45 20:17:06 15° 191° (S) 20:20:28 437.500
ZACube-1 16 Aug 20:15:24 20:17:05 12° 67° (ENE) 20:18:45 437.345
XW-2A 16 Aug 20:18:43 20:21:55 47° 75° (ENE) 20:25:08 145.665 - 145.685
AAUSAT CUBESAT 2 16 Aug 20:21:03 20:24:31 26° 71° (ENE) 20:28:00 437.432
STRAND 1 16 Aug 20:25:19 20:29:46 30° 97° (E) 20:34:13 437.568
AO-73 16 Aug 20:38:03 20:41:07 20° 70° (ENE) 20:44:11 145.935
HO-68 16 Aug 20:41:21 20:48:20 56° 258° (WSW) 20:55:22 435.675
O/OREOS (USA 219) 16 Aug 20:47:21 20:51:01 24° 63° (ENE) 20:54:42 437.305
CUBEBUG 2 16 Aug 20:55:01 20:59:21 58° 259° (W) 21:03:34 437.445
SEEDS 16 Aug 20:55:41 20:59:41 45° 261° (W) 21:03:44 437.485
ISS 16 Aug 20:56:23 20:58:54 21° 231° (SW) 21:01:25 437.550
UWE-3 16 Aug 20:57:58 21:02:14 83° 80° (E) 21:06:27 435.000/436.395/437.385
nSIGHT-1 16 Aug 21:11:44 21:13:21 13° 233° (SW) 21:14:58 .
Oscar 11 16 Aug 21:27:31 21:31:44 60° 76° (ENE) 21:35:59 .
ZACube-1 16 Aug 21:48:56 21:52:56 44° 261° (W) 21:56:55 437.345
AAUSAT CUBESAT 2 16 Aug 21:56:54 21:59:54 19° 265° (W) 22:02:56 437.432
FO-29 16 Aug 21:57:12 22:00:36 16° 91° (E) 22:03:51 435.910
STRAND 1 16 Aug 22:04:37 22:08:47 26° 291° (WNW) 22:12:56 437.568
RS-15 16 Aug 22:08:27 22:20:29 73° 59° (ENE) 22:31:47 29.354- 29.394
DELFI C3 16 Aug 22:10:10 22:13:53 40° 74° (ENE) 22:17:39 145.870
AO-73 16 Aug 22:13:43 22:17:11 25° 264° (W) 22:20:38 145.935
O/OREOS (USA 219) 16 Aug 22:26:32 22:30:20 26° 258° (WSW) 22:34:07 437.305
EO-88 16 Aug 22:28:08 22:31:29 36° 74° (ENE) 22:34:50 145.990 - 145.960
TIGRISAT 16 Aug 22:51:53 22:55:17 23° 96° (E) 22:58:42 435.000
Max Valier Satellite 16 Aug 22:56:55 23:00:31 60° 260° (W) 23:04:07 145.860
ESTCUBE 1 16 Aug 23:22:18 23:25:02 16° 67° (ENE) 23:27:46 437.505/2401.250
FO-29 16 Aug 23:40:41 23:46:05 47° 288° (WNW) 23:51:04 435.910
DELFI C3 16 Aug 23:47:23 23:48:48 12° 267° (W) 23:50:13 145.870
PRISM 16 Aug 23:47:25 23:51:34 82° 101° (E) 23:55:39 437.425
UNISAT 6 16 Aug 23:51:15 23:55:30 60° 284° (WNW) 23:59:47 437.425
EO-88 17 Aug 00:05:05 00:05:16 10° 267° (W) 00:05:27 145.990 - 145.960
SO-50 17 Aug 00:11:32 00:15:13 25° 111° (ESE) 00:18:53 436.795
LO-87 17 Aug 00:13:10 00:16:47 73° 261° (W) 00:20:22 145.935 - 145.965
PCSat 17 Aug 00:15:56 00:21:17 65° 113° (ESE) 00:26:40 145.827
RS-15 17 Aug 00:22:39 00:31:39 27° 258° (WSW) 00:40:21 29.354- 29.394
TIGRISAT 17 Aug 00:28:23 00:31:51 24° 289° (WNW) 00:35:22 435.000
SPROUT 17 Aug 00:32:33 00:35:50 22° 70° (ENE) 00:39:08 437.525
DUCHIFAT 1 17 Aug 00:42:17 00:44:44 15° 94° (E) 00:47:10 145.980
AIST 2D 17 Aug 00:56:47 01:00:21 85° 282° (WNW) 01:03:54 435.315
ESTCUBE 1 17 Aug 00:57:15 01:01:27 40° 261° (W) 01:05:42 437.505/2401.250
M-CUBED/EXP-1 PRIME 17 Aug 01:11:38 01:16:04 87° 290° (WNW) 01:20:10 437.505
NANOSAT C BR1 17 Aug 01:23:14 01:27:22 57° 101° (E) 01:31:29 145.865
POLYITAN 1 17 Aug 01:23:24 01:27:35 66° 102° (ESE) 01:31:45 437.675
VELOX 1 17 Aug 01:23:59 01:28:25 76° 76° (ENE) 01:32:53 145.980
UKube-1 17 Aug 01:30:55 01:33:20 15° 67° (ENE) 01:35:45 .
QB50P2 17 Aug 01:38:13 01:42:25 72° 283° (WNW) 01:46:36 145.880/145.840
EO-79 17 Aug 01:40:37 01:44:49 75° 283° (WNW) 01:48:59 145.935-145.965
DX 1 17 Aug 01:41:16 01:45:07 31° 71° (ENE) 01:48:58 434.975-435.025
50 SAT 17 Aug 01:47:14 01:50:31 46° 75° (ENE) 01:53:49 437.505
SO-50 17 Aug 01:51:37 01:55:32 28° 306° (NW) 01:59:26 436.795
PCSat 17 Aug 02:01:47 02:05:07 16° 309° (NW) 02:08:30 145.827
SPROUT 17 Aug 02:08:03 02:11:35 25° 264° (W) 02:15:06 437.525
Gurwin Techsat 1B 17 Aug 02:10:00 02:11:36 11° 91° (E) 02:13:12 435.225
DUCHIFAT 1 17 Aug 02:16:40 02:20:27 34° 287° (WNW) 02:24:13 145.980
NO-84 17 Aug 02:24:51 02:26:41 15° 125° (SE) 02:28:28 435.350 FM
BUGSAT 1 17 Aug 02:34:59 02:39:00 85° 281° (W) 02:43:00 437.445
YUBILEINY 17 Aug 02:42:37 02:42:49 10° 62° (ENE) 02:42:59 435.215
UKube-1 17 Aug 03:04:55 03:08:58 40° 261° (W) 03:13:03 .
Oscar 19 17 Aug 03:09:37 03:14:50 81° 103° (ESE) 03:20:02 437.125/150
DX 1 17 Aug 03:18:11 03:21:17 19° 265° (W) 03:24:24 434.975-435.025
BEESAT 17 Aug 03:26:03 03:30:10 30° 70° (ENE) 03:34:18 436.000
Gurwin Techsat 1B 17 Aug 03:46:40 03:51:57 70° 286° (WNW) 03:57:13 435.225
MOZHAYETS 4 17 Aug 03:49:27 03:53:43 41° 73° (ENE) 03:58:00
ITUPSAT 1 17 Aug 03:56:38 04:01:20 65° 75° (ENE) 04:06:02 437.325
NO-84 17 Aug 04:01:31 04:03:53 23° 318° (NW) 04:06:14 435.350 FM
AO-7 17 Aug 04:08:08 04:14:56 27° 97° (E) 04:21:38 .
ITAMSAT 1 17 Aug 04:20:11 04:24:14 23° 96° (E) 04:28:16 435.822/435.867
YUBILEINY 17 Aug 04:32:33 04:41:15 69° 82° (E) 04:49:52 435.215
KKS-1 17 Aug 04:36:28 04:37:36 11° 65° (ENE) 04:38:45 437.445
Oscar 19 17 Aug 04:52:22 04:53:24 11° 298° (WNW) 04:54:26 437.125/150
BEESAT 17 Aug 05:04:11 05:07:54 23° 264° (W) 05:11:37 436.000
STARS 17 Aug 05:25:55 05:28:35 16° 67° (ENE) 05:31:15 437.465
MOZHAYETS 4 17 Aug 05:28:29 05:31:00 15° 267° (W) 05:33:33
CUBESAT XI-V 17 Aug 05:34:00 05:38:36 71° 258° (WSW) 05:43:16 437.345
ITUPSAT 1 17 Aug 05:39:17 05:39:30 10° 268° (W) 05:39:43 437.325
ITAMSAT 1 17 Aug 05:59:03 06:03:42 35° 290° (WNW) 06:08:20 435.822/435.867
AO-7 17 Aug 05:59:53 06:07:57 57° 293° (WNW) 06:15:59 .
KKS-1 17 Aug 06:09:11 06:13:35 60° 259° (WSW) 06:18:02 437.445
YUBILEINY 17 Aug 06:31:13 06:37:06 21° 279° (W) 06:43:00 435.215
LilacSat-2 17 Aug 06:36:48 06:37:27 10° 92° (E) 06:38:07 437.200
XW-2D 17 Aug 06:45:21 06:47:17 13° 93° (E) 06:49:13 145.860 - 145.880
BEESAT 3 17 Aug 06:53:18 06:57:15 78° 118° (ESE) 07:01:18 437.485
XW-2B 17 Aug 06:55:38 06:58:16 18° 95° (E) 07:00:53 145.730 - 145.750
BEESAT 2 17 Aug 06:57:50 07:01:01 23° 111° (ESE) 07:04:14 435.950
STARS 17 Aug 07:00:27 07:04:34 38° 261° (W) 07:08:42 437.465
NUDT-PHONESAT 17 Aug 07:08:25 07:11:03 18° 95° (E) 07:13:41 437.300
XW-2C 17 Aug 07:13:46 07:17:13 31° 98° (E) 07:20:38 145.795 - 145.815
DOVE 4 17 Aug 07:19:12 07:23:46 64° 284° (WNW) 07:28:03 437.250
AO-85 17 Aug 07:21:16 07:25:15 78° 297° (WNW) 07:29:10 145.980
XW-2F 17 Aug 07:29:21 07:33:04 47° 100° (E) 07:36:45 145.980 - 146.000
CUTE-I 17 Aug 07:36:29 07:41:37 48° 100° (E) 07:46:43 437.470
STRAND 1 17 Aug 07:37:35 07:42:01 30° 70° (ENE) 07:46:26 437.568
CUTE 1.7 + AOD 2 17 Aug 07:48:25 07:50:31 13° 93° (E) 07:52:36 437.475
